Location: Ditterswind
(50.1692°N, 10.6348°E)
Time: 00:37:26
(UTC+00:00)

SL-16 R/B - Pass Details

Date: 07 June 2020
Orbit: 842 x 846 km, 71.0° (Epoch: 12 July)

Event Time Altitude Azimuth Distance (km) Brightness Sun altitude
Exits shadow 00:23:03 14° 153° (SSE) 2,216 4.0 -15.6°
Maximum altitude 00:26:51 26° 103° (ESE) 1,592 3.7 -15.4°
Drops below altitude 10° 00:31:28 10° 49° (NE) 2,475 5.6 -15.2°
Sets 00:34:16 0° 37° (NE) 3,416 6.8 -15.0°
